SCOUT X-4 DEB, 2986

Orbit data source: Space-Track

SCOUT X-4 DEB, 2986 is space debris in LEO originally from a launch on Thu, 04 Jun 1964 UTC launched from the Air Force Western Test Range (AFWTR). Debris objects in space refer to the collection of defunct objects orbiting the Earth. Examples of debris include non-operational satellites, rocket bodies, and fragments generated from explosions, collisions, or faulty payload assembly.

Loading next visibility...
Identifier
2986, 1964-026E
Orbit
LEO
Country
Flag of USUS
Related business
Manufacturer
Unknown
Mission
Spacecraft
Bus & Motor
Unknown
Mass
Unknown
Launch date (UTC)
1964-06-04 (62 years ago)
Launch vehicle
Unknown
Launch site
Air Force Western Test Range (AFWTR)
Object type
Payload
Rocket body
Debris
Shape & HBR
Unknown shape, 0.1 m
Radar Cross Section
Small (<0.1 m²)

Expand to show TLE details & history
Last TLE update: 1 day ago

TLE from 1 day ago
0 SCOUT X-4 DEB
1 02986U 64026E   25346.83943594  .00000389  00000-0  22707-3 0  9999
2 02986  90.4703 182.5055 0047641  97.5081 263.1518 14.06438349148278
Epoch: 2025-12-12T20:08Z
TLE epoch observation values (Epoch: 2025-12-12T20:08:47.265Z)
Latitude
0.00002°
Longitude
158.53326°
Altitude
878.902 km
Speed
7.411 km/s
True Right ascension
12h 10m 01s
True Declination
0° 00' 00"
Sunlit
Object was in daylight at epoch
Visualization orbit readout
Latitude
Unknown
Longitude
Unknown
Altitude
Unknown
Speed
Unknown
Apparent Right ascension
Unknown
Apparent Declination
Unknown
Sunlit
N/A
Visualization observer readout
Local Sidereal Time
20:56:29
Azimuth
Unknown
Elevation
Unknown
Doppler factor
Unknown
Orbital elements
Apogee altitude
903.078 km
Perigee altitude
834.03 km
Semi-major axis
7,246.691 km
Eccentricity
0.00476
Inclination
90.4703°
RAAN
182.5055°
Arg. of periapsis
97.5081°
True anomaly
262.61016°
Mean anomaly
263.1518°
Eccentric anomaly
262.88094°
Mean motion
3.51831 °/min
Orbital period
102.32 mins
BSTAR
0.00022707
Loading maneuver chart data...
Computing Atmospheric mass density...
Loading historical data...
Loading historical data...
Loading historical data...
Loading historical data...
Loading historical data...
Loading historical data...
Loading historical data...

Documentation

Showing up to 5 results
|